RH
9 9 9 9 8 8 8 7 7 7 6 6 6 6 6 6 6 6 6 6 5 5 5 5 5 5 5 5 5 5 5 5 5 5 5 5 5 5 4 4 4 5 5 6 7 6 6 6 6 6 6 5 5 4 4 5 5 5 4 5 5 5 5
8 8 8 8 7 7 7 7 6 6 6 6 6 6 6 6 6 6 6 6 6 5 5 5 5 4 4 4 4 4 5 4 4 5 5 5 5 4 4 4 4 4 5 5 6 6 6 6 6 6 6 5 5 4 4 4 4 4 4 4 5 5 5
8 8 8 8 7 7 7 7 7 7 7 7 7 7 7 6 6 6 6 6 6 6 5 5 5 5 5 5 5 5 5 5 5 5 4 4 4 4 4 4 4 4 4 4 5 5 5 6 6 6 6 5 5 4 4 4 4 4 4 4 4 5 5
8 8 8 8 8 8 8 7 7 7 7 7 7 7 7 7 6 6 6 6 6 6 6 6 6 5 5 5 5 5 5 5 5 5 5 4 4 4 4 4 4 4 4 4 4 5 5 5 5 5 5 5 5 4 4 3 3 3 4 3 4 4 5
9 9 8 8 8 8 7 7 7 7 7 7 6 6 6 6 6 6 6 6 6 6 6 6 6 6 5 5 5 5 5 5 5 5 5 5 4 5 4 4 4 3 4 4 4 5 5 5 4 4 5 5 4 4 4 3 3 3 3 4 3 3 4
9 8 8 8 7 7 7 7 7 6 6 6 6 6 6 6 6 6 6 6 6 6 6 6 6 6 6 6 6 6 6 5 5 5 5 5 5 5 4 4 4 4 4 4 4 4 4 4 4 4 4 4 4 4 4 3 4 3 3 3 3 3 3
8 8 7 7 7 7 6 6 6 6 6 6 6 6 6 6 6 6 6 6 6 6 5 6 6 6 6 6 6 6 6 6 6 5 5 5 5 5 5 4 4 4 4 4 4 4 4 4 4 4 4 4 4 4 4 3 3 3 3 2 3 3 3
7 7 7 6 6 6 6 6 6 6 6 6 6 6 6 6 6 6 6 6 6 6 5 5 6 6 6 6 6 6 6 6 6 6 6 5 5 5 5 4 4 4 4 4 3 3 3 4 3 3 3 3 3 3 3 3 3 3 3 2 2 2 2
6 6 6 6 6 6 6 6 6 5 6 6 6 6 6 6 7 7 6 6 6 6 6 6 6 6 6 6 6 6 6 6 6 6 5 5 5 5 5 4 4 4 3 3 3 3 3 3 3 3 3 2 3 3 2 3 3 2 2 2 2 2 2
6 6 6 6 6 6 6 5 5 5 5 6 6 6 6 7 7 7 7 6 6 6 6 6 6 6 6 6 6 6 6 6 6 6 5 5 5 5 5 4 3 3 3 3 3 3 2 3 2 2 3 3 2 3 3 2 2 3 2 2 2 2 2
6 6 6 6 6 6 6 5 5 6 5 6 6 6 6 7 7 7 7 6 6 6 6 6 6 7 6 6 6 6 6 7 6 6 5 5 5 4 4 4 3 3 3 3 3 3 2 3 3 2 2 3 3 2 3 3 2 2 3 2 2 2 2
6 6 6 6 6 6 6 6 6 6 6 6 6 6 6 7 7 8 7 7 7 7 7 7 7 7 6 6 6 7 7 7 6 6 5 5 5 4 3 3 3 3 3 3 3 3 3 3 3 3 3 2 3 3 3 3 3 3 3 3 3 2 2
7 7 7 7 7 7 7 7 7 7 7 7 7 7 7 8 8 8 8 8 8 8 8 8 8 7 7 6 6 7 7 7 6 5 5 4 4 4 3 3 3 3 3 3 3 3 3 3 2 3 3 2 3 3 3 3 3 3 2 3 3 2 2
7 8 8 8 9 9 9 8 8 8 8 8 8 8 8 9 9 9 9 8 8 9 9 9 9 8 7 7 7 7 7 6 6 4 4 4 4 4 3 3 3 3 3 3 3 3 3 3 3 3 2 3 3 2 3 3 2 3 3 2 3 3 2
9 9 10 10 10 10 10 10 9 10 10 10 9 9 10 10 10 9 9 9 9 10 10 10 9 9 8 7 6 6 6 5 5 4 4 4 4 4 4 4 3 4 3 3 3 3 3 2 3 3 2 3 3 3 3 3 2 3 3 3 3 3 2
11 11 11 11 11 12 12 12 11 12 12 11 11 11 12 12 11 11 11 10 10 11 11 11 10 8 8 7 6 6 5 5 4 4 4 4 4 4 4 4 4 3 4 4 3 3 3 3 2 3 3 3 3 3 2 3 3 3 3 3 3 2 2
13 13 13 13 13 14 14 14 13 13 14 13 13 14 14 14 13 12 12 11 10 11 11 10 9 8 7 6 6 5 5 4 4 4 4 4 4 4 4 4 4 4 3 4 4 3 3 3 3 3 3 3 3 3 3 3 3 3 3 3 3 3 2
14 14 14 14 14 15 16 16 15 14 14 14 14 15 16 16 15 13 12 10 10 10 10 9 8 7 6 6 5 5 5 5 5 4 4 4 4 4 4 3 3 4 4 3 4 4 3 3 3 3 3 3 3 3 3 3 3 3 3 3 3 3 2
16 16 16 15 15 16 17 18 16 15 14 14 14 15 16 16 15 14 11 10 9 8 8 7 6 6 6 6 5 5 5 5 5 5 5 5 4 4 4 4 3 4 4 4 4 3 3 3 3 3 3 3 3 3 3 3 3 3 3 3 3 3 3
18 18 18 16 16 17 17 18 17 15 14 14 13 13 14 14 14 12 10 9 8 8 7 6 6 6 5 5 5 5 5 5 5 5 5 5 5 4 3 4 4 4 4 4 4 3 3 3 3 3 3 3 3 3 3 3 3 3 3 3 3 3 2
18 18 17 16 15 15 16 16 15 14 13 12 12 11 11 12 11 10 9 8 7 7 6 5 5 5 5 6 6 6 6 5 5 5 5 5 4 4 4 4 4 4 4 4 4 4 3 3 3 3 3 3 3 3 3 3 3 3 3 3 3 3 2
16 16 15 14 12 13 13 13 13 12 11 11 10 9 9 10 10 9 8 7 7 7 6 5 5 6 5 6 6 6 6 5 5 5 5 5 5 4 4 4 4 4 4 4 4 4 3 3 3 3 3 3 3 3 3 3 3 3 3 3 3 3 3
14 14 13 12 11 11 11 11 11 11 10 9 9 9 8 8 8 8 7 7 7 6 6 6 5 5 6 6 6 6 6 6 6 5 5 5 5 4 4 4 4 4 4 4 4 4 3 3 3 3 4 4 4 4 3 3 3 3 3 4 3 3 3
12 12 12 11 10 9 9 9 10 9 9 9 8 8 8 7 7 7 7 6 6 6 6 6 6 5 6 6 6 6 6 6 6 5 5 5 5 5 5 4 4 4 4 4 4 4 4 4 4 4 4 4 4 4 4 4 4 4 4 4 4 3 4
11 10 10 9 9 8 8 8 8 8 8 8 7 7 7 7 7 7 6 6 6 6 6 6 6 6 6 6 6 6 6 6 5 5 5 5 5 5 5 5 4 4 4 4 4 4 4 4 4 4 4 4 4 4 4 4 4 4 4 4 4 3 4
9 9 8 8 8 8 7 7 7 7 7 7 7 7 7 7 7 7 6 7 6 7 7 6 6 6 6 6 6 6 5 6 5 5 5 5 5 5 5 5 5 4 4 4 4 4 4 4 4 4 4 4 4 4 4 4 4 4 4 4 4 4 4
8 7 7 7 7 7 7 7 7 7 7 7 7 7 6 7 7 6 6 7 6 6 7 6 6 6 6 6 6 6 6 5 5 5 6 5 5 5 5 5 5 4 5 5 4 5 5 5 5 5 4 4 4 4 4 4 4 4 4 4 4 4 4
7 7 7 7 7 7 7 7 7 7 7 7 7 7 6 6 7 7 6 7 6 6 7 7 6 6 6 6 6 6 6 6 5 6 6 5 5 5 5 5 5 4 5 5 5 5 5 5 5 5 5 5 4 4 4 4 4 4 4 4 4 4 4
7 7 7 7 7 7 7 7 7 7 7 7 6 7 7 6 7 7 7 7 6 7 7 7 7 6 6 6 6 5 6 6 6 6 6 6 5 5 5 5 5 5 5 5 5 5 5 5 6 5 5 5 5 4 4 4 4 5 4 4 4 4 4
7 7 8 7 7 7 7 7 7 7 7 7 7 7 7 6 6 7 7 7 6 6 7 7 6 6 6 5 5 5 6 6 6 6 6 6 6 5 5 5 5 5 5 6 6 6 6 6 6 5 5 5 5 5 5 4 4 5 5 4 5 4 4
7 7 8 7 7 7 7 7 7 7 7 7 7 7 7 6 6 6 7 7 7 6 7 7 6 6 6 5 6 6 6 6 6 6 6 6 6 6 5 5 5 5 5 6 6 6 6 6 6 5 5 5 5 5 5 5 5 5 5 5 5 5 4
7 7 7 7 8 7 7 7 7 7 7 7 7 7 7 6 6 6 7 7 7 7 7 6 6 6 5 5 6 6 6 6 6 6 6 6 6 6 5 5 6 5 6 6 6 6 6 6 6 6 5 5 5 5 5 5 5 5 5 5 5 5 5
7 7 7 7 7 7 7 8 7 6 7 7 7 7 7 7 6 6 7 7 6 6 7 6 6 6 5 5 6 6 6 6 6 6 7 6 6 6 6 6 6 6 6 7 7 7 6 6 6 6 6 6 6 5 5 5 5 5 5 5 5 5 5
6 7 7 7 7 7 7 7 7 7 6 7 7 7 7 7 6 6 7 7 6 6 7 7 6 6 5 5 6 6 6 6 6 6 7 6 6 6 6 6 6 6 6 7 7 7 6 6 6 6 6 6 6 6 6 6 5 5 5 5 5 6 5
6 7 7 7 7 7 7 7 7 7 7 7 7 7 7 7 6 6 7 7 6 6 6 6 6 6 5 5 6 6 6 6 7 7 7 6 6 7 6 6 6 6 7 7 7 7 7 6 6 7 7 7 7 6 6 6 6 6 6 6 6 6 5
5 6 7 7 7 7 7 7 6 7 7 7 7 7 7 6 6 6 6 7 6 5 6 6 6 6 6 6 6 6 6 6 7 7 7 7 7 7 7 7 7 7 7 7 7 7 7 7 7 7 7 7 7 7 6 6 6 6 6 6 6 6 6
Wind_Speed
104 104 104 104 104 104 104 103 103 102 102 102 102 101 101 101 101 101 101 102 102 102 102 101 100 100 100 100 101 101 102 103 104 105 106 107 108 109 108 107 106 104 103 106 110 112 114 117 118 117 117 118 118 119 121 122 123 122 122 122 122 123 124
104 103 103 103 102 102 102 101 101 100 100 99 99 99 99 99 99 98 99 99 100 100 100 99 99 98 97 97 97 98 99 99 100 101 102 103 104 105 106 106 105 103 101 102 106 109 111 113 116 116 117 118 118 118 118 119 121 122 123 122 122 123 124
102 102 101 101 100 100 100 99 99 98 98 98 98 98 98 98 97 97 97 97 97 98 98 98 98 97 96 95 95 95 96 96 97 97 98 99 101 101 102 103 102 101 99 99 102 105 107 109 111 113 114 116 117 117 117 117 118 120 122 122 122 122 124
100 100 100 99 99 99 98 98 97 97 97 97 97 96 96 97 96 96 96 96 96 96 96 96 96 95 94 93 93 93 93 94 94 95 96 96 98 99 99 100 100 99 98 97 98 102 104 105 107 109 111 113 115 116 116 116 116 118 119 121 121 122 123
99 99 99 99 98 98 97 97 97 97 96 96 96 96 96 96 96 96 96 95 95 94 94 95 95 94 93 92 91 92 92 93 93 93 94 95 95 96 97 97 97 97 96 95 96 99 102 103 104 105 108 110 111 113 114 115 115 116 117 119 120 120 121
98 98 98 98 98 97 97 97 96 96 95 95 95 95 95 95 95 95 95 95 94 94 93 93 93 93 92 91 90 91 91 92 92 92 92 93 93 94 94 94 95 95 94 94 95 96 99 100 101 102 104 107 108 110 112 113 114 115 116 117 118 119 119
97 97 97 97 96 96 96 96 95 95 94 94 93 93 93 93 93 93 93 93 93 93 92 91 91 90 90 90 89 90 90 90 90 90 90 90 91 91 91 91 92 92 93 93 93 94 95 96 97 99 101 104 106 107 109 111 112 114 115 115 116 117 117
95 95 95 94 94 94 94 93 93 92 91 91 90 90 89 89 90 90 90 90 91 91 90 89 89 88 87 87 87 87 88 88 88 88 87 87 88 88 88 89 89 90 90 90 90 91 92 93 94 95 98 100 103 105 106 108 110 111 112 113 113 114 115
93 92 92 92 91 91 90 90 89 89 88 87 86 85 85 85 86 87 87 87 87 87 87 87 86 86 85 84 84 84 85 85 86 85 85 85 85 84 85 86 86 87 87 87 87 88 89 90 91 92 93 96 98 101 103 105 106 108 110 110 111 111 112
91 91 90 89 88 88 87 87 86 85 85 84 83 82 81 82 83 84 84 84 84 84 83 83 83 83 83 82 81 81 81 82 83 83 83 82 82 82 82 82 83 83 83 84 85 86 86 87 87 88 89 91 94 96 99 102 103 104 106 108 109 109 109
89 88 87 86 86 85 85 84 83 82 82 81 80 79 78 79 80 82 82 82 81 80 80 80 80 80 80 80 79 78 79 80 81 81 80 80 80 80 81 80 80 80 80 81 82 83 84 84 84 85 85 86 89 92 94 97 99 101 102 104 106 108 107
87 86 85 84 83 83 82 82 81 80 79 78 78 77 76 76 77 79 79 79 79 78 77 77 78 79 79 78 77 76 77 78 79 79 78 78 78 79 79 78 78 77 78 79 80 80 81 82 82 82 82 83 85 88 91 93 96 97 98 100 102 105 106
83 83 82 81 80 80 80 80 79 77 77 76 76 75 73 73 75 76 76 77 76 75 75 76 77 78 78 77 75 75 75 76 77 77 76 76 76 77 77 76 75 75 76 77 77 78 79 79 79 79 80 80 81 84 87 90 92 94 95 96 98 101 104
80 80 79 78 78 77 78 78 76 75 75 75 74 73 72 72 74 74 75 75 74 73 74 75 76 77 77 76 74 73 74 75 76 75 74 74 74 75 75 74 73 73 73 74 75 76 77 77 76 76 77 77 78 81 84 86 88 90 91 93 95 98 101
78 77 77 77 76 76 76 76 75 74 73 74 73 73 72 72 73 74 74 74 73 72 73 74 75 76 76 75 74 73 74 74 74 73 73 73 73 73 72 72 71 71 71 71 72 74 74 74 74 74 74 74 76 79 81 82 84 86 88 91 93 95 97
76 76 76 75 75 75 76 76 75 73 73 73 73 72 71 72 73 74 74 73 72 72 72 74 74 75 74 74 73 73 73 72 72 72 71 71 71 71 70 69 69 69 69 69 70 71 72 72 71 71 71 71 73 76 78 79 80 82 85 87 90 93 94
76 76 75 75 74 75 75 75 75 73 72 72 72 72 71 72 73 74 74 73 72 71 71 73 73 73 72 72 72 72 71 70 70 70 70 69 69 69 68 67 66 67 66 66 68 69 69 69 68 68 69 69 71 73 75 76 78 79 81 84 87 90 91
76 76 75 74 74 74 74 75 75 74 72 72 71 71 71 72 73 74 74 73 71 70 71 71 71 70 70 70 70 70 70 69 68 68 67 67 67 67 66 65 65 65 64 64 65 66 67 67 67 66 67 67 69 71 72 73 75 76 78 81 84 87 88
76 76 75 74 74 73 74 74 75 74 73 72 71 70 70 71 72 73 73 72 71 70 70 70 69 68 67 68 68 68 68 67 67 66 65 65 65 65 64 63 63 62 62 62 63 64 64 65 65 65 65 65 66 68 70 71 73 74 75 78 81 84 86
76 75 76 75 73 73 73 73 74 74 73 72 71 70 69 70 71 72 72 71 70 69 70 68 66 65 65 65 66 66 66 65 65 64 63 62 63 63 62 61 60 59 59 60 61 61 62 62 63 63 63 63 64 66 68 69 70 71 72 75 78 81 83
76 75 76 75 73 73 72 72 73 73 73 72 71 70 69 69 70 72 72 70 68 69 69 67 65 64 63 63 63 64 64 63 62 62 61 60 61 61 61 60 58 57 57 58 59 59 60 60 61 61 61 61 62 63 65 66 67 68 69 72 74 78 80
76 76 76 75 73 72 72 72 72 72 72 72 71 70 69 68 69 71 71 68 67 68 68 66 64 63 61 61 61 62 62 61 60 60 59 58 59 59 59 58 57 55 55 56 57 57 57 58 58 59 59 59 60 61 62 63 64 65 66 68 71 74 77
76 76 76 75 74 73 72 72 72 71 71 72 71 70 69 68 68 69 69 67 66 66 66 65 63 61 60 59 59 59 59 59 59 58 57 56 56 57 57 56 55 54 53 54 54 55 55 55 56 56 56 57 58 58 59 61 62 63 64 65 68 71 74
76 76 75 75 74 73 72 71 71 71 70 71 70 69 68 67 67 68 67 66 64 64 64 64 62 60 58 57 57 57 57 57 57 57 56 54 54 55 55 54 53 52 52 52 52 53 53 53 54 54 54 55 55 56 57 58 59 61 61 63 65 68 71
76 75 75 74 74 73 72 70 70 69 69 69 69 68 67 66 66 66 65 64 63 62 62 62 60 58 57 56 55 55 55 55 55 55 54 53 52 53 53 52 51 50 50 51 51 51 51 51 51 52 52 52 53 54 54 56 57 58 59 60 62 64 67
74 74 73 73 73 72 71 70 69 68 68 68 67 66 65 64 65 65 63 62 61 60 60 60 59 57 55 55 54 54 54 54 53 53 52 52 51 51 50 50 49 48 48 49 49 49 49 49 50 50 50 50 51 51 52 53 55 56 57 58 60 61 64
73 72 72 72 71 70 70 69 67 66 66 66 66 65 63 62 62 63 62 60 59 59 58 58 57 55 54 53 53 52 52 52 52 51 50 50 50 49 49 48 47 46 46 47 48 48 48 48 49 49 48 49 49 50 50 51 52 54 55 56 58 59 60
71 70 70 70 70 69 68 67 66 65 65 65 64 63 62 61 60 60 60 59 58 57 56 56 56 54 53 52 51 50 50 50 50 49 49 49 48 48 47 47 46 45 45 45 46 46 46 47 47 48 47 47 47 48 48 48 49 51 52 54 55 56 58
69 68 68 68 68 67 66 66 65 63 63 63 62 62 61 59 58 58 58 58 56 55 54 55 54 53 52 51 49 48 48 48 48 48 48 48 47 46 45 45 44 44 43 44 44 44 45 45 46 46 46 46 46 46 46 47 47 48 50 51 53 54 55
67 66 66 66 66 65 64 64 64 63 62 61 61 61 60 59 57 56 56 57 55 53 53 53 53 52 51 49 48 47 47 46 46 46 46 46 46 45 44 44 43 43 42 42 42 43 43 44 44 44 44 44 44 44 44 45 45 46 47 49 50 52 53
66 65 65 65 65 64 63 62 62 62 62 60 59 60 60 58 56 54 54 55 54 52 52 52 52 51 49 48 47 46 45 45 44 44 44 45 44 44 43 43 42 42 42 41 41 41 42 42 42 42 42 42 43 43 43 43 44 45 46 47 48 49 50
65 64 64 64 64 63 62 61 61 61 60 59 58 58 59 58 56 53 52 53 53 51 51 51 50 49 48 46 45 45 44 44 43 43 43 43 43 43 42 42 42 41 41 40 40 40 40 40 40 41 41 41 41 41 42 42 43 43 44 45 46 47 48
64 63 63 63 62 62 62 61 60 59 59 58 57 56 57 58 56 53 52 52 52 50 49 49 49 48 47 45 44 44 43 42 42 41 41 41 41 41 41 41 41 40 40 39 39 39 39 39 39 39 39 39 39 40 40 41 41 42 43 44 44 45 46
63 62 63 62 61 61 61 61 60 59 58 57 56 56 56 57 55 52 51 52 51 48 47 47 48 47 46 44 43 42 42 41 41 40 40 40 40 40 40 40 40 39 39 38 38 38 38 37 37 37 37 38 38 38 39 40 40 41 42 42 43 44 45
61 61 62 62 61 60 61 61 60 59 57 56 55 55 55 55 53 51 50 51 51 48 45 46 47 46 44 43 42 42 41 40 40 40 40 39 39 39 39 39 39 38 38 37 37 37 37 36 35 35 36 36 37 37 37 38 39 40 40 41 42 42 43
61 59 59 60 60 61 61 60 59 58 57 55 54 54 54 54 52 49 48 49 50 47 44 44 46 45 43 42 42 41 40 40 39 39 39 38 38 38 39 39 38 38 37 36 35 36 36 35 34 34 34 35 35 35 36 36 37 38 39 40 40 41 42
Wind_Direction
284 284 284 284 283 283 283 282 282 282 281 281 280 280 280 279 279 279 278 278 277 276 275 274 273 272 271 270 269 269 268 268 267 267 266 266 266 265 264 263 261 259 257 256 257 257 257 257 257 256 255 254 252 251 251 251 251 251 249 248 247 246 244
286 285 285 285 284 284 284 284 283 283 283 282 282 282 281 281 280 279 279 278 278 277 277 276 275 274 273 272 271 270 269 269 268 267 267 266 266 265 264 263 262 260 258 256 256 256 256 256 256 256 256 255 254 252 251 250 250 250 249 248 247 246 245
287 287 286 286 286 285 285 285 284 284 284 283 283 283 282 282 281 280 279 279 278 278 277 277 276 275 274 273 273 272 271 270 269 268 268 267 266 265 265 264 263 261 259 257 257 256 255 255 255 255 255 255 254 253 252 251 250 249 249 248 247 245 245
288 287 287 287 286 286 285 285 285 284 284 284 283 283 282 282 281 281 280 279 279 278 278 278 277 276 276 275 274 273 272 271 270 269 269 268 267 266 265 264 263 262 260 259 258 257 256 255 254 254 254 254 254 254 253 251 250 249 248 248 247 245 244
288 288 287 287 287 286 286 286 285 285 284 284 283 283 282 282 282 281 281 280 279 279 278 278 277 277 276 276 275 274 273 272 271 270 269 268 267 267 266 265 264 263 261 259 258 257 257 256 254 254 254 253 253 253 253 252 251 249 248 247 247 246 244
289 288 288 288 287 287 286 286 285 285 284 284 284 283 283 282 282 282 281 281 280 280 279 278 278 277 277 276 275 275 274 273 272 271 270 269 268 267 266 265 264 263 262 260 258 257 257 256 255 254 254 254 253 253 252 252 251 250 249 247 246 245 245
289 289 288 288 287 287 286 286 286 285 285 284 284 283 283 283 282 282 281 281 280 280 279 278 278 277 277 276 276 275 274 273 272 271 270 269 268 267 267 266 265 264 263 261 260 258 257 256 255 254 253 253 253 252 252 251 251 250 249 248 247 246 244
289 289 288 288 288 287 287 286 286 286 285 284 284 284 283 283 282 281 281 280 280 279 279 279 278 277 277 276 275 275 274 273 273 272 271 269 268 268 267 266 265 264 263 262 260 259 257 256 254 253 252 252 252 251 251 250 250 250 249 248 247 246 245
290 289 289 289 288 288 287 287 286 286 285 285 284 284 284 283 282 281 281 280 280 280 280 279 279 278 277 276 275 275 274 274 273 272 271 270 269 268 267 266 266 265 264 262 261 259 258 256 255 253 252 251 251 250 250 250 249 249 249 248 247 246 245
291 290 290 290 289 289 288 288 287 287 286 286 285 285 284 284 283 282 281 281 280 280 280 280 279 279 278 277 276 275 275 275 274 273 273 272 271 270 268 267 266 265 264 263 262 260 258 257 255 254 252 251 250 250 250 249 249 248 248 248 247 246 245
291 291 291 291 290 290 290 289 289 288 288 287 286 285 285 284 283 283 282 282 281 281 281 280 280 279 278 278 277 277 276 276 275 274 274 273 272 271 270 268 267 266 264 263 262 261 260 258 256 254 252 251 250 250 249 249 249 248 247 247 247 247 245
292 292 292 291 291 291 291 290 290 290 289 288 287 286 286 285 284 284 283 283 283 282 282 282 281 280 279 278 278 278 277 277 276 275 275 274 273 272 270 269 268 267 265 264 262 261 260 258 257 255 253 251 250 250 249 249 248 248 247 246 246 247 246
292 292 292 292 292 291 291 291 290 290 290 289 288 288 287 286 285 284 284 284 283 283 283 283 282 281 280 280 279 279 279 278 277 276 275 275 274 272 271 270 269 267 266 264 263 261 260 258 257 256 254 252 250 249 249 248 248 248 247 246 245 246 246
292 292 292 292 292 292 292 291 291 291 291 290 290 289 289 288 286 285 285 284 284 284 284 283 283 282 282 281 281 281 280 278 278 277 276 275 274 273 272 270 269 267 266 265 264 262 260 258 257 256 255 253 251 250 248 248 247 247 247 246 245 245 245
293 293 293 293 293 293 293 292 292 292 292 291 291 290 290 289 287 287 286 286 285 285 285 284 283 283 283 283 282 281 280 279 278 278 276 275 274 273 272 271 270 268 267 265 264 262 261 259 257 255 254 253 252 250 249 248 247 247 246 246 245 245 244
294 294 294 294 294 294 293 293 293 293 292 292 291 291 290 289 288 287 287 286 286 286 285 284 284 283 284 283 283 282 281 280 279 278 277 275 275 274 272 271 270 269 267 265 264 263 261 260 258 256 254 253 252 251 250 249 247 246 246 245 245 245 244
295 295 295 295 295 294 294 294 293 293 293 292 292 291 291 290 289 288 287 286 286 286 285 284 284 284 284 284 283 282 281 280 279 278 277 276 275 274 273 271 270 269 267 266 265 263 262 260 259 257 256 254 252 251 250 249 248 246 245 245 245 245 244
296 296 295 295 295 295 295 294 294 293 292 292 291 291 290 289 289 288 287 287 286 286 285 284 284 284 284 284 283 282 282 281 280 279 278 277 276 274 273 272 270 269 267 266 264 263 262 261 259 258 256 255 253 252 250 249 248 247 245 245 245 245 245
296 296 296 295 295 295 295 294 293 293 292 292 291 290 290 289 288 288 287 287 287 286 285 285 285 285 285 284 283 283 282 281 280 279 278 277 276 275 273 272 270 269 268 266 264 263 262 261 260 258 257 255 253 252 251 249 248 247 246 245 245 245 244
297 296 296 295 295 295 294 294 293 293 292 292 291 290 290 289 288 288 287 288 288 287 286 286 286 285 285 284 284 283 282 281 280 279 279 277 276 275 274 272 270 269 267 266 264 263 262 261 260 259 257 255 253 252 252 250 248 247 246 246 245 245 244
297 296 296 295 295 294 294 293 293 293 292 292 291 291 290 290 289 288 288 288 289 288 287 287 287 286 285 285 284 283 282 281 281 280 279 278 277 275 274 272 271 269 267 266 264 263 262 261 261 259 258 256 254 253 252 251 249 248 246 245 245 245 244
297 296 296 295 295 294 294 294 293 293 292 292 292 291 290 290 290 289 289 289 289 289 288 288 287 287 286 285 284 283 283 282 281 280 279 278 277 275 274 273 271 269 267 266 265 263 262 261 260 260 259 257 256 254 252 251 250 248 246 245 245 245 245
296 296 296 295 295 295 294 294 293 293 293 292 292 291 291 291 290 289 289 290 290 289 289 288 288 287 287 286 285 284 284 283 282 280 279 278 276 275 274 273 271 270 268 266 265 264 263 262 261 260 259 258 256 255 253 252 250 249 247 245 244 244 245
296 296 296 296 295 295 294 294 293 293 293 292 292 292 292 291 290 290 290 290 290 290 289 289 288 288 287 286 285 285 284 283 282 280 279 277 276 275 274 273 272 270 269 267 265 264 263 262 261 260 259 258 256 255 253 252 251 250 248 246 245 244 244
296 296 296 296 295 295 294 294 293 293 293 292 292 292 292 291 291 291 291 291 290 290 289 289 288 288 288 287 286 285 284 282 281 280 279 277 275 274 273 273 272 271 270 268 267 265 264 263 262 261 259 258 257 255 253 252 251 250 248 247 245 244 244
297 296 296 296 296 295 295 295 294 294 293 292 292 292 292 291 291 291 291 290 290 290 289 289 289 289 288 287 286 285 283 282 280 279 278 277 276 274 273 272 271 271 270 269 268 267 266 265 263 262 260 258 257 255 253 252 250 250 248 247 246 244 244
297 297 297 297 296 296 295 295 295 294 293 293 292 292 292 291 291 290 290 290 290 290 290 289 289 289 288 287 286 284 283 282 280 279 278 277 276 275 273 272 271 270 269 269 269 268 267 266 264 263 261 259 257 255 253 251 250 249 248 247 246 245 243
298 298 297 297 296 296 296 295 295 295 294 293 293 292 292 291 291 291 291 290 290 290 290 290 289 289 288 286 285 284 283 282 281 279 278 277 276 275 274 273 272 271 270 270 269 268 267 266 265 263 262 260 258 256 254 252 250 249 248 247 246 245 243
298 298 298 297 296 296 296 295 295 294 293 293 292 292 292 292 291 291 291 291 290 290 290 289 289 288 287 286 285 283 282 281 280 279 278 278 276 275 274 273 272 272 271 270 269 268 267 266 265 263 262 260 258 256 254 252 250 248 247 246 245 245 243
299 298 297 297 296 296 296 295 295 294 293 293 293 293 292 291 291 291 291 291 291 290 290 289 288 287 286 285 284 283 282 280 279 278 277 277 276 275 274 273 273 273 272 271 269 268 267 266 264 263 261 260 258 256 255 253 250 249 247 246 245 244 243
299 298 297 297 296 296 295 295 294 294 294 293 293 293 292 292 291 291 291 291 291 291 290 288 288 287 286 285 284 283 282 280 279 277 277 276 276 275 274 274 274 274 273 271 270 268 267 265 264 263 261 260 258 257 255 253 251 249 247 245 244 244 243
298 298 297 297 296 296 295 294 293 293 293 293 293 292 292 292 292 292 291 290 290 290 289 288 287 286 286 285 284 283 281 280 278 277 276 276 275 275 274 274 274 274 273 272 270 268 267 265 264 263 261 260 258 256 255 253 250 248 247 245 244 243 242
298 298 297 296 296 295 295 294 293 293 293 293 293 293 292 292 292 292 292 290 289 289 288 287 286 286 285 285 284 282 281 279 278 277 276 275 274 274 274 274 274 273 272 271 270 268 267 265 264 263 262 260 258 256 254 252 250 248 247 245 244 243 242
298 298 297 296 296 295 294 294 293 293 293 293 293 293 292 291 291 292 291 289 289 288 288 287 285 285 285 284 283 282 280 278 277 276 275 274 274 274 274 274 273 272 272 271 270 268 267 265 264 263 262 261 259 257 254 252 250 248 246 245 244 243 242
297 297 297 296 296 295 294 293 293 293 293 293 293 292 291 290 290 290 290 289 288 288 287 286 285 284 284 284 282 281 279 278 277 276 275 274 274 273 274 273 273 272 271 270 269 268 267 265 264 263 262 261 259 257 255 252 250 248 246 245 244 243 242
297 297 296 296 296 295 294 293 293 293 293 292 292 291 290 289 289 289 289 288 288 287 287 286 284 284 283 283 281 280 278 277 276 275 274 274 273 273 274 273 272 272 271 270 269 268 267 266 264 263 262 261 259 257 255 252 250 248 246 245 244 243 242